PUA2603 SUMU-SAEZ

Flight info

Callsign PUA2603
Flight time 0h 33m
Altitude 16000
Route DAGUS DCT UGIMI UGIMI7B
Aircraft A339/H-SADE1E2E3GHIJ3J5M1P2RWXY/LB2D1

Departure

Time 2026-04-28 18:05
Airport Carrasco General Cesáreo L. Berisso International Airport (SUMU)

Arrival

Time 2026-04-28 18:39
Airport Ezeiza International Airport - Ministro Pistarini (SAEZ)
Time Latitude Longitude Altitude Speed Heading
2026-04-28 17:51 -34.83542 -56.01659 88 ft 0 kts 143°
2026-04-28 17:57 -34.83533 -56.01668 88 ft 2 kts 143°
2026-04-28 17:57 -34.83521 -56.01678 89 ft 2 kts 143°
2026-04-28 17:57 -34.83509 -56.01689 89 ft 2 kts 143°
2026-04-28 17:58 -34.83496 -56.01701 90 ft 2 kts 150°
2026-04-28 17:58 -34.83483 -56.01706 90 ft 2 kts 179°
2026-04-28 17:58 -34.83468 -56.01704 90 ft 2 kts 201°
2026-04-28 17:58 -34.83455 -56.01695 91 ft 2 kts 224°
2026-04-28 17:59 -34.83450 -56.01688 91 ft 1 kts 234°
2026-04-28 17:59 -34.83449 -56.01685 91 ft 0 kts 233°
2026-04-28 17:59 -34.83449 -56.01686 91 ft 0 kts 233°
2026-04-28 18:00 -34.83451 -56.01689 91 ft 2 kts 233°
2026-04-28 18:00 -34.83477 -56.01731 90 ft 8 kts 233°
2026-04-28 18:00 -34.83516 -56.01795 89 ft 11 kts 233°
2026-04-28 18:01 -34.83569 -56.01881 86 ft 14 kts 234°
2026-04-28 18:01 -34.83634 -56.01990 84 ft 16 kts 234°
2026-04-28 18:01 -34.83704 -56.02111 82 ft 18 kts 233°
2026-04-28 18:01 -34.83795 -56.02225 78 ft 19 kts 200°
2026-04-28 18:02 -34.83928 -56.02256 73 ft 12 kts 208°
2026-04-28 18:02 -34.83950 -56.02346 72 ft 14 kts 269°
2026-04-28 18:02 -34.83949 -56.02476 72 ft 16 kts 272°
2026-04-28 18:02 -34.83948 -56.02620 72 ft 17 kts 263°
2026-04-28 18:03 -34.83997 -56.02763 70 ft 18 kts 243°
2026-04-28 18:03 -34.84011 -56.02914 70 ft 18 kts 270°
2026-04-28 18:03 -34.84023 -56.03053 68 ft 12 kts 234°
2026-04-28 18:03 -34.84109 -56.03055 65 ft 16 kts 154°
2026-04-28 18:04 -34.84180 -56.03030 63 ft 7 kts 210°
2026-04-28 18:04 -34.84171 -56.03073 63 ft 7 kts 347°
2026-04-28 18:04 -34.84148 -56.03076 64 ft 3 kts 356°
2026-04-28 18:04 -34.84117 -56.03078 65 ft 10 kts 356°
2026-04-28 18:05 -34.83903 -56.03086 72 ft 62 kts 358°
2026-04-28 18:05 -34.83514 -56.03089 75 ft 104 kts 359°
2026-04-28 18:05 -34.82233 -56.03114 207 ft 160 kts 355°
2026-04-28 18:05 -34.81086 -56.03158 752 ft 165 kts 356°
2026-04-28 18:06 -34.79993 -56.03173 1545 ft 154 kts 355°
2026-04-28 18:06 -34.78963 -56.03316 2100 ft 152 kts 332°
2026-04-28 18:06 -34.78186 -56.04206 2430 ft 165 kts 292°
2026-04-28 18:06 -34.78177 -56.05640 2737 ft 188 kts 248°
2026-04-28 18:07 -34.79185 -56.06787 3032 ft 216 kts 206°
2026-04-28 18:07 -34.80696 -56.07275 3358 ft 236 kts 193°
2026-04-28 18:07 -34.82384 -56.07588 3673 ft 254 kts 192°
2026-04-28 18:07 -34.84181 -56.07914 4022 ft 268 kts 192°
2026-04-28 18:08 -34.86063 -56.08290 4802 ft 273 kts 193°
2026-04-28 18:08 -34.87886 -56.08678 5767 ft 270 kts 194°
2026-04-28 18:08 -34.89702 -56.09082 6665 ft 268 kts 195°
2026-04-28 18:08 -34.91533 -56.09502 7485 ft 269 kts 195°
2026-04-28 18:09 -34.93366 -56.09927 8263 ft 271 kts 196°
2026-04-28 18:09 -34.95211 -56.10359 9045 ft 273 kts 196°
2026-04-28 18:09 -34.97064 -56.10794 9814 ft 275 kts 196°
2026-04-28 18:09 -34.98948 -56.11240 10517 ft 279 kts 198°
2026-04-28 18:10 -35.00767 -56.12131 10876 ft 287 kts 217°
2026-04-28 18:10 -35.02251 -56.13826 11201 ft 299 kts 236°
2026-04-28 18:10 -35.03174 -56.16096 11497 ft 314 kts 255°
2026-04-28 18:10 -35.03381 -56.18817 11804 ft 331 kts 273°
2026-04-28 18:11 -35.03141 -56.21641 12367 ft 339 kts 273°
2026-04-28 18:11 -35.02937 -56.24521 13112 ft 343 kts 273°
2026-04-28 18:11 -35.02739 -56.27401 13822 ft 346 kts 273°
2026-04-28 18:11 -35.02537 -56.30320 14572 ft 349 kts 273°
2026-04-28 18:12 -35.02333 -56.33254 15342 ft 350 kts 274°
2026-04-28 18:12 -35.02123 -56.36206 15807 ft 351 kts 274°
2026-04-28 18:12 -35.01913 -56.39149 15988 ft 351 kts 274°
2026-04-28 18:12 -35.01701 -56.42100 16018 ft 350 kts 273°
2026-04-28 18:13 -35.01490 -56.45016 16004 ft 349 kts 274°
2026-04-28 18:13 -35.01276 -56.47974 15991 ft 349 kts 273°
2026-04-28 18:13 -35.01063 -56.50902 15993 ft 349 kts 273°
2026-04-28 18:13 -35.00850 -56.53824 15995 ft 349 kts 273°
2026-04-28 18:14 -35.00637 -56.56744 15991 ft 349 kts 273°
2026-04-28 18:14 -35.00423 -56.59672 15996 ft 349 kts 273°
2026-04-28 18:14 -35.00204 -56.62636 15996 ft 349 kts 273°
2026-04-28 18:14 -34.99994 -56.65491 15991 ft 350 kts 274°
2026-04-28 18:15 -34.99772 -56.68481 15986 ft 350 kts 274°
2026-04-28 18:15 -34.99552 -56.71442 15989 ft 350 kts 274°
2026-04-28 18:15 -34.99333 -56.74382 15991 ft 350 kts 274°
2026-04-28 18:15 -34.99110 -56.77369 15990 ft 350 kts 274°
2026-04-28 18:16 -34.98889 -56.80310 15990 ft 350 kts 274°
2026-04-28 18:16 -34.98667 -56.83239 15987 ft 350 kts 274°
2026-04-28 18:16 -34.98444 -56.86184 15985 ft 350 kts 274°
2026-04-28 18:16 -34.98298 -56.89117 15989 ft 349 kts 271°
2026-04-28 18:17 -34.98264 -56.92073 15986 ft 349 kts 269°
2026-04-28 18:17 -34.98252 -56.95019 15994 ft 348 kts 269°
2026-04-28 18:17 -34.98241 -56.97925 15990 ft 348 kts 269°
2026-04-28 18:17 -34.98228 -57.00880 15989 ft 348 kts 269°
2026-04-28 18:18 -34.98215 -57.03822 15987 ft 349 kts 269°
2026-04-28 18:18 -34.98201 -57.06741 15983 ft 348 kts 269°
2026-04-28 18:18 -34.98188 -57.09696 15980 ft 348 kts 269°
2026-04-28 18:18 -34.98180 -57.11655 15984 ft 349 kts 269°
2026-04-28 18:19 -34.98164 -57.15570 15983 ft 348 kts 269°
2026-04-28 18:19 -34.98150 -57.18527 15984 ft 348 kts 269°
2026-04-28 18:19 -34.98135 -57.21492 15985 ft 349 kts 269°
2026-04-28 18:19 -34.98119 -57.24397 15987 ft 350 kts 269°
2026-04-28 18:20 -34.98104 -57.27365 15985 ft 350 kts 269°
2026-04-28 18:20 -34.98087 -57.30337 15988 ft 350 kts 269°
2026-04-28 18:20 -34.98068 -57.33278 15960 ft 350 kts 269°
2026-04-28 18:20 -34.98049 -57.36228 15739 ft 350 kts 269°
2026-04-28 18:21 -34.98030 -57.39173 15465 ft 348 kts 269°
2026-04-28 18:21 -34.98008 -57.42144 15112 ft 347 kts 269°
2026-04-28 18:21 -34.97989 -57.45030 14739 ft 344 kts 269°
2026-04-28 18:21 -34.97967 -57.47944 14349 ft 342 kts 269°
2026-04-28 18:22 -34.97945 -57.50834 13959 ft 340 kts 269°
2026-04-28 18:22 -34.97924 -57.53682 13581 ft 337 kts 269°
2026-04-28 18:22 -34.97900 -57.56513 13231 ft 334 kts 269°
2026-04-28 18:22 -34.97877 -57.59318 12869 ft 331 kts 269°
2026-04-28 18:23 -34.97854 -57.62121 12477 ft 329 kts 269°
2026-04-28 18:23 -34.97829 -57.64863 12136 ft 326 kts 269°
2026-04-28 18:23 -34.97804 -57.67607 11771 ft 323 kts 269°
2026-04-28 18:23 -34.97779 -57.70329 11412 ft 321 kts 269°
2026-04-28 18:24 -34.97754 -57.73084 11013 ft 320 kts 270°
2026-04-28 18:24 -34.97738 -57.74879 10766 ft 318 kts 269°
2026-04-28 18:24 -34.97702 -57.78440 10311 ft 309 kts 269°
2026-04-28 18:24 -34.97674 -57.80984 10242 ft 291 kts 269°
2026-04-28 18:25 -34.97648 -57.83372 10211 ft 273 kts 269°
2026-04-28 18:25 -34.97624 -57.85601 10196 ft 259 kts 269°
2026-04-28 18:25 -34.97608 -57.87774 10150 ft 248 kts 267°
2026-04-28 18:26 -34.97983 -57.91837 10071 ft 239 kts 258°
2026-04-28 18:26 -34.98356 -57.93801 10037 ft 238 kts 257°
2026-04-28 18:26 -34.98735 -57.95757 9770 ft 241 kts 257°
2026-04-28 18:26 -34.99125 -57.97764 9479 ft 241 kts 257°
2026-04-28 18:27 -34.99511 -57.99754 9230 ft 241 kts 257°
2026-04-28 18:27 -34.99890 -58.01707 8973 ft 240 kts 257°
2026-04-28 18:27 -35.00271 -58.03678 8724 ft 239 kts 257°
2026-04-28 18:27 -35.00654 -58.05652 8447 ft 239 kts 257°
2026-04-28 18:28 -35.01034 -58.07619 8181 ft 238 kts 257°
2026-04-28 18:28 -35.01413 -58.09578 7934 ft 237 kts 257°
2026-04-28 18:28 -35.01790 -58.11532 7677 ft 236 kts 257°
2026-04-28 18:28 -35.02165 -58.13475 7437 ft 235 kts 257°
2026-04-28 18:29 -35.02539 -58.15418 7185 ft 234 kts 257°
2026-04-28 18:29 -35.02910 -58.17340 6939 ft 234 kts 257°
2026-04-28 18:29 -35.03284 -58.19282 6690 ft 233 kts 257°
2026-04-28 18:29 -35.03653 -58.21207 6438 ft 232 kts 257°
2026-04-28 18:30 -35.04016 -58.23107 6186 ft 231 kts 257°
2026-04-28 18:30 -35.04139 -58.23746 6106 ft 231 kts 257°
2026-04-28 18:30 -35.04746 -58.26900 5705 ft 230 kts 257°
2026-04-28 18:30 -35.05107 -58.28790 5472 ft 229 kts 257°
2026-04-28 18:31 -35.05471 -58.30693 5225 ft 229 kts 258°
2026-04-28 18:31 -35.05829 -58.32562 5009 ft 227 kts 258°
2026-04-28 18:31 -35.06185 -58.34430 4964 ft 225 kts 258°
2026-04-28 18:31 -35.06543 -58.36310 4960 ft 223 kts 258°
2026-04-28 18:32 -35.06884 -58.38103 4945 ft 213 kts 258°
2026-04-28 18:32 -35.07207 -58.39798 4945 ft 201 kts 258°
2026-04-28 18:32 -35.07500 -58.41418 4951 ft 186 kts 266°
2026-04-28 18:32 -35.07190 -58.42880 4899 ft 175 kts 304°
2026-04-28 18:33 -35.06305 -58.43891 4701 ft 175 kts 319°
2026-04-28 18:33 -35.05254 -58.44647 4469 ft 177 kts 329°
2026-04-28 18:33 -35.04111 -58.45210 4231 ft 178 kts 335°
2026-04-28 18:33 -35.02930 -58.45684 4002 ft 178 kts 337°
2026-04-28 18:34 -35.01740 -58.46122 3768 ft 177 kts 338°
2026-04-28 18:34 -35.00568 -58.46538 3531 ft 176 kts 339°
2026-04-28 18:34 -34.99383 -58.46952 3291 ft 176 kts 339°
2026-04-28 18:34 -34.98208 -58.47360 3044 ft 175 kts 339°
2026-04-28 18:35 -34.97031 -58.47768 2809 ft 172 kts 340°
2026-04-28 18:35 -34.95904 -58.48157 2583 ft 164 kts 340°
2026-04-28 18:35 -34.94834 -58.48527 2377 ft 156 kts 340°
2026-04-28 18:35 -34.93818 -58.48879 2168 ft 149 kts 340°
2026-04-28 18:36 -34.92849 -58.49216 1977 ft 141 kts 340°
2026-04-28 18:36 -34.91933 -58.49534 1798 ft 133 kts 340°
2026-04-28 18:36 -34.91039 -58.49845 1637 ft 134 kts 340°
2026-04-28 18:36 -34.90146 -58.50157 1471 ft 133 kts 340°
2026-04-28 18:37 -34.89246 -58.50470 1302 ft 133 kts 340°
2026-04-28 18:37 -34.88352 -58.50780 1127 ft 133 kts 340°
2026-04-28 18:37 -34.87471 -58.51085 953 ft 132 kts 340°
2026-04-28 18:37 -34.86584 -58.51394 775 ft 132 kts 340°
2026-04-28 18:38 -34.85688 -58.51704 594 ft 132 kts 340°
2026-04-28 18:38 -34.84807 -58.52011 422 ft 133 kts 341°
2026-04-28 18:38 -34.83919 -58.52320 248 ft 133 kts 341°
2026-04-28 18:38 -34.83026 -58.52625 109 ft 132 kts 341°
2026-04-28 18:39 -34.82184 -58.52918 78 ft 113 kts 342°
2026-04-28 18:39 -34.81586 -58.53136 76 ft 64 kts 345°
2026-04-28 18:39 -34.81313 -58.53228 77 ft 28 kts 343°
2026-04-28 18:39 -34.81179 -58.53318 79 ft 19 kts 290°
2026-04-28 18:40 -34.81163 -58.53461 82 ft 15 kts 275°
2026-04-28 18:40 -34.81185 -58.53564 85 ft 11 kts 216°
2026-04-28 18:40 -34.81251 -58.53583 87 ft 9 kts 184°
2026-04-28 18:40 -34.81326 -58.53590 87 ft 11 kts 184°
2026-04-28 18:41 -34.81390 -58.53599 88 ft 1 kts 217°
2026-04-28 18:41 -34.81393 -58.53608 88 ft 3 kts 249°
2026-04-28 18:41 -34.81383 -58.53653 89 ft 6 kts 298°
2026-04-28 18:41 -34.81362 -58.53695 90 ft 4 kts 305°
2026-04-28 18:42 -34.81356 -58.53704 90 ft 0 kts 307°